This is the latest recevied weather packets stored in our database for station/object SP6FIG. If no packets are shown the sender has not sent any weather packets the latest 10 day(s).
| Time | Temp. | Humidity | Pressure | Rain* | Wind** | Luminosity | Snow |
|---|---|---|---|---|---|---|---|
| 1777725639 | 23.89° C | 28% | 973.6 hPa | - | - | - | - |
| 1777725039 | 23.89° C | 25% | 973.7 hPa | - | - | - | - |
| 1777724439 | 23.33° C | 28% | 973.7 hPa | - | - | - | - |
| 1777723839 | 23.33° C | 27% | 974 hPa | - | - | - | - |
| 1777723239 | 23.33° C | 27% | 974.1 hPa | - | - | - | - |
| 1777722639 | 23.33° C | 27% | 974.2 hPa | - | - | - | - |
| 1777722038 | 23.33° C | 28% | 974.3 hPa | - | - | - | - |
| 1777721438 | 23.33° C | 27% | 974.4 hPa | - | - | - | - |
| 1777720838 | 23.33° C | 27% | 974.6 hPa | - | - | - | - |
| 1777720238 | 22.78° C | 30% | 974.7 hPa | - | - | - | - |
| 1777719638 | 23.33° C | 28% | 974.7 hPa | - | - | - | - |
| 1777719038 | 22.78° C | 31% | 974.8 hPa | - | - | - | - |
| 1777718438 | 22.78° C | 31% | 974.9 hPa | - | - | - | - |
| 1777717838 | 22.78° C | 32% | 975 hPa | - | - | - | - |
| 1777717238 | 22.22° C | 31% | 975.2 hPa | - | - | - | - |
| 1777716638 | 22.22° C | 33% | 975.4 hPa | - | - | - | - |
| 1777716038 | 22.22° C | 34% | 975.4 hPa | - | - | - | - |
| 1777715438 | 22.22° C | 34% | 975.5 hPa | - | - | - | - |
| 1777714838 | 22.22° C | 35% | 975.6 hPa | - | - | - | - |
| 1777714238 | 22.22° C | 33% | 975.7 hPa | - | - | - | - |
| 1777665713 | 23.33° C | 33% | 977.4 hPa | - | - | - | - |
| 1777665113 | 22.78° C | 32% | 977.4 hPa | - | - | - | - |
| 1777664513 | 22.78° C | 32% | 977.4 hPa | - | - | - | - |
| 1777663913 | 22.78° C | 32% | 977.4 hPa | - | - | - | - |
| 1777662713 | 22.78° C | 33% | 977.3 hPa | - | - | - | - |
* Rain since midnight (hover to see other rain measurements)
** Current wind speed in m/s (hover to see current wind gust speed)